This is the latest recevied weather packets stored in our database for station/object DM3DP. If no packets are shown the sender has not sent any weather packets the latest 10 day(s).
| Time | Temp. | Humidity | Pressure | Rain* | Wind** | Luminosity | Snow |
|---|---|---|---|---|---|---|---|
| 1777882794 | 17.78° C | 74% | 1011.6 hPa | 0 mm | - | 838 W/m² | - |
| 1777882464 | 17.78° C | 78% | 1011.6 hPa | 0 mm | - | 797 W/m² | - |
| 1777882134 | 17.78° C | 78% | 1011.6 hPa | 0 mm | - | 812 W/m² | - |
| 1777881805 | 17.78° C | 78% | 1011.6 hPa | 0 mm | - | 813 W/m² | - |
| 1777881474 | 17.22° C | 78% | 1011.6 hPa | 0 mm | - | 804 W/m² | - |
| 1777881144 | 17.22° C | 79% | 1011.6 hPa | 0 mm | - | 813 W/m² | - |
| 1777880814 | 17.22° C | 79% | 1011.6 hPa | 0 mm | - | 740 W/m² | - |
| 1777880484 | 16.67° C | 80% | 1011.6 hPa | 0 mm | - | 718 W/m² | - |
| 1777880154 | 16.67° C | 82% | 1011.6 hPa | 0 mm | - | 769 W/m² | - |
| 1777879824 | 16.11° C | 82% | 1011.6 hPa | 0 mm | - | 563 W/m² | - |
| 1777879495 | 16.11° C | 84% | 1011.6 hPa | 0 mm | - | 794 W/m² | - |
| 1777879165 | 16.11° C | 84% | 1011.6 hPa | 0 mm | - | 517 W/m² | - |
| 1777878834 | 16.11° C | 84% | 1011.5 hPa | 0 mm | - | 362 W/m² | - |
| 1777878504 | 15.56° C | 86% | 1011.5 hPa | 0 mm | - | 473 W/m² | - |
| 1777878174 | 15.56° C | 86% | 1011.4 hPa | 0 mm | - | 331 W/m² | - |
| 1777877844 | 15.56° C | 86% | 1011.4 hPa | 0 mm | - | 442 W/m² | - |
| 1777877514 | 15° C | 87% | 1011.4 hPa | 0 mm | - | 538 W/m² | - |
| 1777877185 | 15° C | 88% | 1011.4 hPa | 0 mm | - | 227 W/m² | - |
| 1777876854 | 13.89° C | 92% | 1011.4 hPa | 0 mm | - | 647 W/m² | - |
| 1777876525 | 13.33° C | 94% | 1011.4 hPa | 0 mm | - | 255 W/m² | - |
| 1777876194 | 12.78° C | 95% | 1011.4 hPa | 0 mm | - | 296 W/m² | - |
| 1777875864 | 12.78° C | 95% | 1011.4 hPa | 0 mm | - | 294 W/m² | - |
| 1777875535 | 12.78° C | 95% | 1011.4 hPa | 0 mm | - | 41 W/m² | - |
| 1777875204 | 12.78° C | 95% | 1011.4 hPa | 0 mm | - | 25 W/m² | - |
| 1777874874 | 12.22° C | 95% | 1011.3 hPa | 0 mm | - | 48 W/m² | - |
* Rain latest hour (hover to see other rain measurements)
** Current wind speed in m/s (hover to see current wind gust speed)